Location: Worth Mountain WMA
(34.9569°N, 81.4819°W)
Time: 09:13:33
(UTC-04:00)

Amateur Radio Satellites - All Passes

Search period start: 24 May 2015 08:43
Search period end: 25 May 2015 08:43
Location: Worth Mountain WMA, 34.9569°N, 81.4819°W

Satellite Date Start Highest point End Downlink Frequencies (MHz)
Time Altitude Azimuth
M-CUBED/EXP-1 PRIME 24 May 08:43:40 08:46:52 19° 260° (W) 08:49:48 437.505
AUBIESAT-1 24 May 08:55:26 08:58:11 16° 261° (W) 09:00:40 437.475
Cosmos 2491 24 May 09:00:49 09:08:48 38° 272° (W) 09:16:32 435.465 / 435.565
Cosmos 2504 24 May 09:20:01 09:20:48 10° 81° (E) 09:22:24 435.465 / 435.565
HO-68 24 May 09:20:58 09:27:10 32° 96° (E) 09:33:27 435.675
DOVE 4 24 May 09:26:12 09:30:34 29° 94° (E) 09:34:50 437.250
BRITE-PL 24 May 09:28:12 09:33:55 79° 101° (E) 09:39:22 437.365/2234.400
CINEMA 3 24 May 09:29:21 09:31:19 13° 89° (E) 09:33:31 145.822/145.860
CUTE-I 24 May 09:31:33 09:33:04 11° 297° (WNW) 09:34:15 437.470
PHONESAT 2.4 24 May 09:39:07 09:42:35 73° 20° (NNE) 09:46:03 2401.200-2431.200
CANX-2 24 May 09:39:23 09:43:19 39° 98° (E) 09:47:16 2200.000
CUTE 1.7 + AOD 2 24 May 09:43:26 09:47:23 39° 98° (E) 09:51:20 437.475
GOMX 1 24 May 09:47:10 09:52:36 77° 101° (E) 09:57:43 467.674
VERMONT LUNAR 24 May 09:49:08 09:51:51 25° 213° (SSW) 09:54:31 437.305
YUBILEINY 24 May 09:49:09 09:57:13 38° 286° (WNW) 10:05:07 435.215
AIST 1 24 May 09:57:21 10:00:47 22° 270° (W) 10:04:06
SEEDS 24 May 10:10:52 10:15:03 71° 100° (E) 10:19:12 437.485
RS-15 24 May 10:17:24 10:28:18 86° 118° (ESE) 10:39:27 29.354- 29.394
FUNcube-1 24 May 10:18:29 10:20:01 12° 90° (E) 10:21:47 145.935
COMPASS 1 24 May 10:29:13 10:33:22 86° 283° (WNW) 10:37:31 437.405
ANTELSAT 24 May 10:32:30 10:36:23 27° 71° (ENE) 10:40:20 437.575/2403.000
POLYITAN 1 24 May 10:33:03 10:33:37 10° 67° (ENE) 10:34:28 437.675
PCSat 24 May 10:37:55 10:41:45 20° 50° (NE) 10:45:44 145.827
CUBEBUG 2 24 May 10:40:13 10:44:24 39° 97° (E) 10:48:28 437.445
AAUSAT CUBESAT 2 24 May 10:44:07 10:48:13 66° 284° (WNW) 10:52:18 437.432
ZACube-1 24 May 10:55:40 10:59:39 35° 97° (E) 11:03:33 437.345
NANOSAT C BR1 24 May 11:02:26 11:05:44 23° 71° (ENE) 11:09:09 145.865
DOVE 4 24 May 11:03:53 11:08:15 27° 290° (WNW) 11:12:19 437.250
CINEMA 3 24 May 11:04:20 11:08:58 51° 286° (WNW) 11:13:21 145.822/145.860
UKube-1 24 May 11:04:43 11:07:46 19° 94° (E) 11:10:56 .
Cosmos 2504 24 May 11:04:48 11:13:18 75° 94° (E) 11:21:17 435.465 / 435.565
TIGRISAT 24 May 11:05:58 11:10:36 60° 75° (ENE) 11:15:14 435.000
QB50P2 24 May 11:07:47 11:11:23 27° 72° (ENE) 11:15:04 145.880/145.840
HO-68 24 May 11:08:20 11:15:00 42° 292° (WNW) 11:21:33 435.675
DX 1 24 May 11:08:31 11:11:58 23° 95° (E) 11:15:31 434.975-435.025
BRITE-PL 24 May 11:09:05 11:11:44 13° 296° (WNW) 11:14:01 437.365/2234.400
VELOX 1 24 May 11:12:16 11:13:41 12° 90° (E) 11:15:24 145.980
Oscar 11 24 May 11:15:06 11:19:23 68° 284° (WNW) 11:23:38 145.826/435.025
HUMSAT D 24 May 11:15:30 11:18:57 25° 95° (E) 11:22:25 437.325/437.525
CANX-2 24 May 11:16:34 11:18:58 15° 291° (WNW) 11:21:10 2200.000
PHONESAT 2.4 24 May 11:17:47 11:20:29 21° 215° (SW) 11:23:09 2401.200-2431.200
POPSAT HIP 1 24 May 11:20:30 11:24:25 37° 73° (ENE) 11:28:24 437.405
CUTE 1.7 + AOD 2 24 May 11:20:36 11:23:00 15° 291° (WNW) 11:25:13 437.475
50 SAT 24 May 11:20:42 11:22:50 15° 92° (E) 11:25:08 437.505
DUCHIFAT 1 24 May 11:24:57 11:28:55 41° 74° (ENE) 11:32:58 145.980
UNISAT 6 24 May 11:24:57 11:29:39 80° 258° (WSW) 11:34:21 437.425
GOMX 1 24 May 11:27:49 11:30:01 12° 296° (WNW) 11:31:52 467.674
DELFI C3 24 May 11:32:12 11:36:08 55° 285° (WNW) 11:40:02 145.870
UWE-3 24 May 11:34:02 11:38:23 58° 285° (WNW) 11:42:34 435.000/436.395/437.385
AISAT 24 May 11:40:46 11:44:34 27° 96° (E) 11:48:24 437.250
FUNcube-1 24 May 11:52:32 11:56:43 46° 285° (WNW) 12:00:44 145.935
BUGSAT 1 24 May 12:01:47 12:05:53 79° 77° (ENE) 12:10:04 437.445
QB50P1 24 May 12:04:35 12:08:48 62° 259° (W) 12:13:04 145.935-145.965
POLYITAN 1 24 May 12:04:49 12:09:04 60° 260° (W) 12:13:21 437.675
ANTELSAT 24 May 12:09:07 12:13:05 26° 265° (W) 12:16:59 437.575/2403.000
CUBEBUG 2 24 May 12:17:59 12:20:47 16° 292° (WNW) 12:23:20 437.445
PCSat 24 May 12:20:16 12:25:33 53° 248° (WSW) 12:30:47 145.827
GONETS M04 24 May 12:27:00 12:29:02 11° 79° (E) 12:31:56
ZACube-1 24 May 12:32:56 12:35:44 16° 291° (WNW) 12:38:19 437.345
RS-15 24 May 12:33:19 12:42:20 27° 323° (NW) 12:51:14 29.354- 29.394
JUGNU 24 May 12:33:35 12:36:48 15° 171° (S) 12:40:04 437.505
ESTCUBE 1 24 May 12:36:58 12:41:29 68° 101° (E) 12:45:59 437.505/2401.250
NANOSAT C BR1 24 May 12:37:55 12:41:28 25° 265° (W) 12:44:59 145.865
UKube-1 24 May 12:40:07 12:43:58 31° 288° (WNW) 12:47:45 .
QB50P2 24 May 12:43:59 12:47:17 21° 266° (W) 12:50:29 145.880/145.840
DX 1 24 May 12:44:30 12:48:11 26° 289° (WNW) 12:51:47 434.975-435.025
TISAT 1 24 May 12:45:21 12:46:52 12° 91° (E) 12:48:38 437.305
TIGRISAT 24 May 12:46:14 12:47:47 11° 271° (W) 12:49:00 435.000
VELOX 1 24 May 12:46:15 12:50:38 52° 286° (WNW) 12:54:58 145.980
HUMSAT D 24 May 12:51:25 12:54:35 21° 289° (WNW) 12:57:37 437.325/437.525
CUBEBUG 1 24 May 12:53:08 12:57:36 89° 284° (WNW) 13:02:03 437.445
50 SAT 24 May 12:54:14 12:57:41 30° 287° (WNW) 13:01:03 437.505
POPSAT HIP 1 24 May 12:57:52 13:00:28 15° 268° (W) 13:02:54 437.405
Cosmos 2504 24 May 13:01:39 13:07:30 19° 292° (WNW) 13:12:41 435.465 / 435.565
DUCHIFAT 1 24 May 13:02:42 13:04:58 14° 269° (W) 13:07:02 145.980
CUSAT 1 24 May 13:05:53 13:11:28 29° 86° (E) 13:18:06 437.405
AISAT 24 May 13:17:26 13:21:03 23° 290° (WNW) 13:24:32 437.250
SO-50 24 May 13:34:29 13:39:22 55° 57° (ENE) 13:44:09 436.795
SPROUT 24 May 13:43:39 13:48:01 89° 284° (WNW) 13:52:20 437.525
SRMSAT 24 May 13:45:34 13:48:10 13° 168° (SSE) 13:50:52 437.500
Oscar 19 24 May 13:48:39 13:53:39 52° 74° (ENE) 13:58:44 437.125/150
DANDE 24 May 13:55:49 14:02:04 53° 92° (E) 14:09:52 436.750
BEESAT 24 May 13:57:05 13:58:50 12° 90° (E) 14:00:54 436.000
ITAMSAT 1 24 May 13:58:04 14:01:21 18° 67° (ENE) 14:04:51 435.822/435.867
SWISSCUBE 24 May 14:04:05 14:07:01 17° 92° (E) 14:10:10 437.505
GONETS M04 24 May 14:15:53 14:24:41 77° 94° (E) 14:33:32
ESTCUBE 1 24 May 14:17:24 14:17:51 10° 294° (WNW) 14:18:01 437.505/2401.250
Gurwin Techsat 1B 24 May 14:17:28 14:21:45 26° 69° (ENE) 14:26:09 435.225
TISAT 1 24 May 14:18:50 14:22:57 46° 286° (WNW) 14:27:01 437.305
JUGNU 24 May 14:21:15 14:25:07 18° 181° (S) 14:28:57 437.505
AO-7 24 May 14:31:47 14:34:29 12° 52° (NE) 14:37:45 29.400- 29.500
JAS-2 24 May 14:45:08 14:45:16 10° 64° (ENE) 14:45:56 435.910
CUSAT 1 24 May 14:47:02 14:53:41 51° 285° (WNW) 15:01:33 437.405
RS-15 24 May 14:56:42 15:00:32 12° 357° (N) 15:04:21 29.354- 29.394
SO-50 24 May 15:16:37 15:19:30 15° 251° (WSW) 15:22:07 436.795
ITUPSAT 1 24 May 15:22:45 15:27:32 74° 284° (WNW) 15:32:17 437.325
Oscar 19 24 May 15:30:11 15:33:23 16° 269° (W) 15:36:20 437.125/150
BEESAT 24 May 15:32:26 15:37:07 56° 286° (WNW) 15:41:46 436.000
SRMSAT 24 May 15:32:46 15:36:38 18° 178° (S) 15:40:30 437.500
ITAMSAT 1 24 May 15:35:33 15:40:31 48° 260° (W) 15:45:31 435.822/435.867
DANDE 24 May 15:40:07 15:45:53 27° 294° (WNW) 15:52:25 436.750
SWISSCUBE 24 May 15:40:35 15:45:07 42° 287° (WNW) 15:49:35 437.505
Cosmos 2499 24 May 15:42:43 15:50:41 52° 92° (E) 15:58:09 435.465 / 435.565
Gurwin Techsat 1B 24 May 15:56:50 16:01:37 33° 264° (W) 16:06:21 435.225
STARS 24 May 15:58:04 16:01:46 26° 96° (E) 16:05:31 437.465
HORYU 2 24 May 16:09:31 16:13:55 57° 75° (ENE) 16:18:20 437.375
JUGNU 24 May 16:10:32 16:13:25 14° 191° (S) 16:16:13 437.505
GONETS M04 24 May 16:16:21 16:22:37 20° 294° (WNW) 16:28:26
AO-7 24 May 16:17:47 16:25:56 66° 70° (ENE) 16:34:10 29.400- 29.500
KKS-1 24 May 16:22:34 16:27:05 89° 108° (ESE) 16:31:33 437.445
JAS-2 24 May 16:22:47 16:29:48 75° 76° (ENE) 16:36:01 435.910
O/OREOS (USA 219) 24 May 16:40:43 16:45:12 66° 108° (ESE) 16:49:40 437.305
RS-15 24 May 17:10:58 17:19:18 23° 33° (NNE) 17:28:18 29.354- 29.394
SRMSAT 24 May 17:21:38 17:25:06 16° 188° (S) 17:28:31 437.500
MOZHAYETS 4 24 May 17:31:24 17:35:35 35° 97° (E) 17:39:46
CUTE-I 24 May 17:31:26 17:32:40 11° 63° (ENE) 17:34:15 437.470
STARS 24 May 17:34:35 17:38:07 23° 290° (WNW) 17:41:32 437.465
Cosmos 2499 24 May 17:37:15 17:44:08 27° 288° (WNW) 17:50:25 435.465 / 435.565
Cubesat XI-IV 24 May 17:48:55 17:52:13 18° 66° (ENE) 17:55:44 437.490
HORYU 2 24 May 17:49:46 17:50:59 11° 270° (W) 17:51:51 437.375
YUBILEINY 24 May 18:08:17 18:12:50 16° 63° (ENE) 18:17:59 435.215
JAS-2 24 May 18:11:21 18:15:20 15° 269° (W) 18:18:41 435.910
AO-7 24 May 18:13:00 18:19:24 23° 267° (W) 18:25:27 29.400- 29.500
O/OREOS (USA 219) 24 May 18:23:49 18:25:10 11° 305° (NW) 18:26:14 437.305
BEESAT 3 24 May 18:31:48 18:35:08 26° 113° (ESE) 18:38:36 437.485
CUBESAT XI-V 24 May 19:02:36 19:06:30 26° 95° (E) 19:10:29 437.345
CUTE-I 24 May 19:06:49 19:12:08 82° 257° (WSW) 19:17:29 437.470
MOZHAYETS 4 24 May 19:09:21 19:12:34 19° 291° (WNW) 19:15:39
BEESAT 2 24 May 19:16:01 19:20:05 71° 118° (ESE) 19:24:13 435.950
STRAND 1 24 May 19:16:24 19:19:02 15° 91° (E) 19:21:58 437.568
RS-15 24 May 19:22:32 19:34:15 75° 58° (ENE) 19:46:26 29.354- 29.394
Cubesat XI-IV 24 May 19:26:48 19:31:57 52° 260° (W) 19:37:08 437.490
HO-68 24 May 19:48:00 19:52:20 18° 61° (ENE) 19:56:59 435.675
PRISM 24 May 19:59:11 20:03:11 47° 100° (E) 20:07:13 437.425
Cosmos 2491 24 May 20:00:22 20:08:44 53° 91° (E) 20:17:14 435.465 / 435.565
YUBILEINY 24 May 20:02:21 20:11:05 89° 264° (W) 20:19:47 435.215
BEESAT 3 24 May 20:09:45 20:13:06 23° 308° (NW) 20:16:25 437.485
AIST 2 24 May 20:26:34 20:30:48 70° 300° (WNW) 20:35:05 435.215
M-CUBED/EXP-1 PRIME 24 May 20:27:10 20:30:11 33° 103° (ESE) 20:33:14 437.505
DOVE 4 24 May 20:28:28 20:32:13 22° 68° (ENE) 20:36:13 437.250
CANX-2 24 May 20:29:54 20:32:54 20° 71° (ENE) 20:36:02 2200.000
CUTE 1.7 + AOD 2 24 May 20:33:52 20:36:52 20° 71° (ENE) 20:40:00 437.475
BRITE-PL 24 May 20:35:16 20:40:06 61° 74° (ENE) 20:45:22 437.365/2234.400
AUBIESAT-1 24 May 20:37:49 20:40:56 40° 104° (ESE) 20:44:06 437.475
CUBESAT XI-V 24 May 20:39:57 20:43:53 26° 289° (WNW) 20:47:44 437.345
AIST 1 24 May 20:46:40 20:49:18 17° 89° (E) 20:52:06
GOMX 1 24 May 20:51:18 20:56:10 56° 74° (ENE) 21:01:23 467.674
STRAND 1 24 May 20:53:37 20:58:38 55° 287° (WNW) 21:03:39 437.568
BEESAT 2 24 May 20:57:29 20:58:43 11° 315° (NW) 20:59:46 435.950
SEEDS 24 May 20:59:52 21:03:36 31° 73° (ENE) 21:07:22 437.485
Cosmos 2504 24 May 21:03:19 21:07:51 18° 68° (ENE) 21:12:45 435.465 / 435.565
COMPASS 1 24 May 21:17:09 21:21:03 40° 74° (ENE) 21:25:00 437.405
AAUSAT CUBESAT 2 24 May 21:31:24 21:35:27 51° 75° (ENE) 21:39:31 437.432
HO-68 24 May 21:32:10 21:39:22 79° 256° (WSW) 21:46:35 435.675
CUBEBUG 2 24 May 21:35:10 21:38:58 25° 71° (ENE) 21:42:53 437.445
RS-15 24 May 21:36:28 21:45:58 28° 255° (WSW) 21:55:07 29.354- 29.394
PRISM 24 May 21:36:31 21:38:17 12° 292° (WNW) 21:39:50 437.425
ZACube-1 24 May 21:48:42 21:52:06 21° 70° (ENE) 21:55:37 437.345
UKube-1 24 May 21:58:21 21:59:37 11° 66° (ENE) 22:01:07 .
Cosmos 2491 24 May 21:58:29 22:06:01 30° 289° (WNW) 22:13:22 435.465 / 435.565
CINEMA 3 24 May 22:01:38 22:06:33 84° 258° (WSW) 22:11:38 145.822/145.860
DX 1 24 May 22:02:17 22:04:27 14° 67° (ENE) 22:06:49 434.975-435.025
YUBILEINY 24 May 22:02:27 22:06:53 14° 279° (W) 22:10:39 435.215
CANX-2 24 May 22:04:54 22:08:40 29° 264° (W) 22:12:23 2200.000
DOVE 4 24 May 22:05:01 22:09:41 39° 264° (W) 22:14:33 437.250
HUMSAT D 24 May 22:05:26 22:07:29 14° 68° (ENE) 22:09:44 437.325/437.525
Oscar 11 24 May 22:06:19 22:10:35 59° 75° (ENE) 22:14:52 145.826/435.025
CUTE 1.7 + AOD 2 24 May 22:08:52 22:12:38 29° 264° (W) 22:16:20 437.475
DELFI C3 24 May 22:16:02 22:19:57 53° 76° (ENE) 22:23:55 145.870
BRITE-PL 24 May 22:16:53 22:19:15 13° 273° (W) 22:21:21 437.365/2234.400
AIST 1 24 May 22:22:58 22:26:45 30° 283° (WNW) 22:30:30
UWE-3 24 May 22:27:02 22:31:42 74° 77° (ENE) 22:36:24 435.000/436.395/437.385
GOMX 1 24 May 22:31:59 22:34:48 14° 272° (W) 22:37:25 467.674
AISAT 24 May 22:36:19 22:39:07 17° 69° (ENE) 22:42:06 437.250
SEEDS 24 May 22:36:34 22:39:29 17° 267° (W) 22:42:15 437.485
FUNcube-1 24 May 22:44:06 22:48:42 88° 74° (ENE) 22:53:18 145.935
COMPASS 1 24 May 22:54:47 22:56:58 13° 269° (W) 22:58:55 437.405
Cosmos 2504 24 May 22:54:51 23:01:59 65° 267° (W) 23:09:04 435.465 / 435.565
TIGRISAT 24 May 23:02:46 23:05:13 15° 91° (E) 23:07:50 435.000
AAUSAT CUBESAT 2 24 May 23:10:43 23:11:25 10° 270° (W) 23:11:50 437.432
CUBEBUG 2 24 May 23:11:23 23:15:33 29° 265° (W) 23:19:39 437.445
UNISAT 6 24 May 23:21:06 23:24:45 26° 95° (E) 23:28:24 437.425
ZACube-1 24 May 23:24:09 23:28:16 32° 264° (W) 23:32:22 437.345
HO-68 24 May 23:27:08 23:28:19 10° 273° (W) 23:28:46 435.675
UKube-1 24 May 23:31:05 23:35:20 55° 260° (W) 23:39:35 .
ESTCUBE 1 24 May 23:33:27 23:37:38 41° 73° (ENE) 23:41:51 437.505/2401.250
50 SAT 24 May 23:34:49 23:38:50 89° 83° (E) 23:42:52 437.505
DX 1 24 May 23:36:12 23:40:22 44° 261° (W) 23:44:32 434.975-435.025
HUMSAT D 24 May 23:38:43 23:42:53 45° 261° (W) 23:47:03 437.325/437.525
VELOX 1 24 May 23:40:14 23:44:38 90° 79° (E) 23:49:06 145.980
CUBEBUG 1 24 May 23:45:58 23:50:07 48° 74° (ENE) 23:54:22 437.445
BUGSAT 1 24 May 23:48:42 23:51:06 15° 92° (E) 23:53:41 437.445
CUSAT 1 24 May 23:49:44 23:54:06 17° 61° (ENE) 23:58:14 437.405
QB50P1 24 May 23:53:28 23:57:04 27° 96° (E) 00:00:43 145.935-145.965
POLYITAN 1 24 May 23:54:01 23:57:40 27° 96° (E) 00:01:20 437.675
ANTELSAT 25 May 00:03:48 00:08:13 87° 101° (ESE) 00:12:30 437.575/2403.000
AISAT 25 May 00:11:19 00:15:27 37° 262° (W) 00:19:35 437.250
NANOSAT C BR1 25 May 00:25:15 00:29:31 66° 101° (E) 00:33:44 145.865
GONETS M04 25 May 00:31:05 00:38:36 32° 72° (ENE) 00:46:16
QB50P2 25 May 00:31:23 00:35:41 82° 102° (ESE) 00:39:57 145.880/145.840
SPROUT 25 May 00:34:28 00:38:33 44° 74° (ENE) 00:42:42 437.525
TIGRISAT 25 May 00:38:07 00:42:12 37° 287° (WNW) 00:46:08 435.000
DANDE 25 May 00:42:29 00:49:44 39° 71° (ENE) 00:55:41 436.750
POPSAT HIP 1 25 May 00:44:19 00:48:36 72° 284° (WNW) 00:52:50 437.405
DUCHIFAT 1 25 May 00:48:20 00:52:35 65° 284° (WNW) 00:56:47 145.980
ISS 25 May 00:56:18 00:59:29 60° 319° (NW) 01:02:43 145.825
UNISAT 6 25 May 00:57:59 01:01:26 22° 290° (WNW) 01:04:44 437.425
BEESAT 25 May 01:02:07 01:02:50 10° 65° (ENE) 01:03:50 436.000
TISAT 1 25 May 01:07:14 01:11:27 82° 79° (E) 01:15:45 437.305
SWISSCUBE 25 May 01:08:31 01:10:50 14° 66° (ENE) 01:13:23 437.505
ESTCUBE 1 25 May 01:12:04 01:14:44 15° 268° (W) 01:17:12 437.505/2401.250
PCSat 25 May 01:15:50 01:20:31 32° 109° (ESE) 01:25:19 145.827
BUGSAT 1 25 May 01:22:47 01:26:45 37° 287° (WNW) 01:30:39 437.445
CUBEBUG 1 25 May 01:25:06 01:26:51 12° 270° (W) 01:28:19 437.445
QB50P1 25 May 01:29:30 01:32:48 21° 290° (WNW) 01:35:59 145.935-145.965
POLYITAN 1 25 May 01:30:10 01:33:26 21° 290° (WNW) 01:36:33 437.675
CUSAT 1 25 May 01:30:42 01:37:58 70° 265° (W) 01:43:30 437.405
Cosmos 2499 25 May 01:41:49 01:43:03 11° 63° (ENE) 01:44:53 435.465 / 435.565
Oscar 19 25 May 02:04:15 02:08:18 24° 94° (E) 02:12:27 437.125/150
SPROUT 25 May 02:12:53 02:14:56 13° 269° (W) 02:16:44 437.525
VERMONT LUNAR 25 May 02:24:28 02:27:07 24° 147° (SSE) 02:29:48 437.305
DANDE 25 May 02:25:58 02:32:50 34° 273° (W) 02:38:20 436.750
ITUPSAT 1 25 May 02:26:07 02:30:53 87° 77° (ENE) 02:35:41 437.325
GONETS M04 25 May 02:27:23 02:35:45 49° 270° (W) 02:43:55
BEESAT 25 May 02:35:24 02:40:09 72° 258° (WSW) 02:44:55 436.000
Gurwin Techsat 1B 25 May 02:38:20 02:40:31 13° 90° (E) 02:43:04 435.225
SWISSCUBE 25 May 02:43:39 02:48:17 53° 260° (W) 02:52:57 437.505
STARS 25 May 02:52:43 02:55:26 17° 68° (ENE) 02:58:21 437.465
O/OREOS (USA 219) 25 May 02:53:57 02:58:25 72° 69° (ENE) 03:02:53 437.305
PCSat 25 May 02:59:08 03:03:55 30° 305° (NW) 03:08:40 145.827
KKS-1 25 May 03:17:19 03:21:39 52° 75° (ENE) 03:26:03 437.445
Cosmos 2499 25 May 03:30:24 03:37:30 85° 85° (E) 03:44:41 435.465 / 435.565
BEESAT 2 25 May 03:39:17 03:41:58 17° 49° (NE) 03:44:42 435.950
Oscar 19 25 May 03:43:05 03:47:44 34° 289° (WNW) 03:52:17 437.125/150
SO-50 25 May 03:45:52 03:50:06 37° 114° (ESE) 03:54:31 436.795
ITAMSAT 1 25 May 03:51:26 03:56:40 80° 103° (ESE) 04:01:54 435.822/435.867
VERMONT LUNAR 25 May 04:01:00 04:04:11 59° 341° (NNW) 04:07:21 437.305
PHONESAT 2.4 25 May 04:01:51 04:05:08 40° 150° (SSE) 04:08:25 2401.200-2431.200
HORYU 2 25 May 04:05:44 04:07:56 14° 92° (E) 04:10:23 437.375
Gurwin Techsat 1B 25 May 04:15:46 04:21:02 64° 286° (WNW) 04:26:17 435.225
AO-7 25 May 04:24:04 04:30:36 26° 94° (E) 04:37:26 29.400- 29.500
STARS 25 May 04:27:28 04:31:36 38° 262° (W) 04:35:46 437.465
BEESAT 3 25 May 04:30:30 04:34:35 75° 60° (ENE) 04:38:34 437.485
MOZHAYETS 4 25 May 04:30:37 04:34:12 24° 71° (ENE) 04:37:52
AIST 2 25 May 04:51:48 04:55:25 28° 53° (NE) 04:59:02 435.215
KKS-1 25 May 04:56:57 04:58:40 12° 270° (W) 05:00:06 437.445
BEESAT 2 25 May 05:16:25 05:20:14 38° 245° (WSW) 05:23:57 435.950
JAS-2 25 May 05:20:43 05:25:55 86° 101° (E) 05:31:17 435.910
SO-50 25 May 05:26:59 05:30:47 23° 311° (NW) 05:34:34 436.795
Cosmos 2499 25 May 05:27:09 05:29:50 12° 277° (W) 05:31:58 435.465 / 435.565
ITAMSAT 1 25 May 05:33:55 05:35:35 11° 296° (WNW) 05:36:56 435.822/435.867
VERMONT LUNAR 25 May 05:38:52 05:41:43 28° 357° (N) 05:44:34 437.305
PHONESAT 2.4 25 May 05:39:53 05:43:14 46° 345° (NNW) 05:46:36 2401.200-2431.200
HORYU 2 25 May 05:40:39 05:44:51 42° 287° (WNW) 05:49:00 437.375
CUBESAT XI-V 25 May 06:03:43 06:06:42 18° 69° (ENE) 06:09:52 437.345
MOZHAYETS 4 25 May 06:07:22 06:11:19 28° 265° (W) 06:15:12
AO-7 25 May 06:15:42 06:23:55 61° 291° (WNW) 06:32:04 29.400- 29.500
Cosmos 2491 25 May 06:15:58 06:22:08 22° 67° (ENE) 06:28:42 435.465 / 435.565
STRAND 1 25 May 06:29:27 06:32:21 16° 66° (ENE) 06:35:29 437.568
AIST 2 25 May 06:30:33 06:33:52 22° 248° (WSW) 06:37:03 435.215
PRISM 25 May 06:46:47 06:49:54 22° 71° (ENE) 06:53:08 437.425
YUBILEINY 25 May 07:05:33 07:11:15 21° 83° (E) 07:17:26 435.215
M-CUBED/EXP-1 PRIME 25 May 07:11:56 07:15:50 33° 69° (ENE) 07:19:31 437.505
VERMONT LUNAR 25 May 07:16:17 07:19:20 41° 14° (NNE) 07:22:23 437.305
PHONESAT 2.4 25 May 07:18:38 07:21:47 31° 2° (N) 07:24:55 2401.200-2431.200
AUBIESAT-1 25 May 07:22:06 07:26:04 37° 70° (ENE) 07:29:48 437.475
ISS 25 May 07:26:35 07:29:34 32° 36° (NE) 07:32:33 145.825
CUTE-I 25 May 07:27:21 07:32:35 53° 100° (E) 07:37:49 437.470
CUBESAT XI-V 25 May 07:39:38 07:43:54 37° 263° (W) 07:48:10 437.345
Cubesat XI-IV 25 May 07:47:11 07:52:34 83° 103° (ESE) 07:57:58 437.490
STRAND 1 25 May 08:06:13 08:11:10 53° 260° (W) 08:16:09 437.568
Cosmos 2491 25 May 08:11:10 08:19:58 71° 266° (W) 08:28:39 435.465 / 435.565
AO-7 25 May 08:12:54 08:15:15 11° 309° (NW) 08:17:00 29.400- 29.500
PRISM 25 May 08:21:58 08:25:17 23° 264° (W) 08:28:32 437.425
AIST 1 25 May 08:32:52 08:37:03 43° 80° (E) 08:41:15
